GEFSCGP_850_meantemp_318.txt.gz
Temperature
20 18 17 18 18 19 19 19 18 18 19 18 17 17 17 17 17 17 17 17 18 18 18 18 18 18 18 18 18 18 17 17 17 17 17 17 16 16 16 16 16 16 16 15
18 18 19 19 19 19 19 18 18 18 19 18 17 17 17 16 16 17 17 17 18 18 18 18 18 18 18 18 18 18 18 17 17 17 17 17 16 16 16 16 16 16 15 15
18 19 19 19 19 19 18 18 18 18 18 18 18 17 17 17 17 17 17 17 18 18 18 18 18 18 18 18 18 18 18 17 17 17 17 16 16 16 16 16 16 15 15 15
18 19 19 19 19 19 18 19 19 18 17 16 18 16 17 16 16 16 17 17 17 18 18 18 18 18 18 18 18 18 18 17 17 17 17 16 16 16 16 16 15 15 15 15
18 19 19 19 19 19 18 19 18 18 17 16 16 16 16 16 16 16 16 17 17 18 18 18 18 18 18 18 18 18 17 17 17 17 17 16 16 16 16 16 15 15 15 15
18 19 19 19 19 19 18 17 16 15 15 16 16 16 16 15 16 16 16 17 17 18 18 18 18 18 18 18 18 18 17 17 17 17 16 16 16 16 16 15 15 15 15 15
17 18 19 19 19 18 18 16 16 16 15 15 16 16 15 16 16 16 16 17 17 17 18 18 18 18 18 18 18 18 17 17 17 17 16 16 16 16 16 16 15 15 15 15
16 17 18 18 18 18 17 16 16 16 15 15 15 15 16 16 16 17 17 17 17 17 18 18 18 18 18 18 18 17 17 17 17 17 16 16 16 16 16 15 15 15 15 15
16 16 18 18 18 17 17 15 16 15 15 15 15 15 15 16 16 16 16 16 16 17 17 18 18 18 17 17 17 17 17 17 17 17 16 16 16 16 15 15 15 15 15 15
16 16 17 18 18 17 16 15 14 14 15 15 15 15 15 16 16 15 15 15 16 17 17 17 17 17 17 17 17 17 17 17 17 17 16 16 16 15 15 15 15 15 15 14
16 16 16 17 17 17 16 15 14 13 14 14 15 15 16 15 15 15 15 15 16 16 17 17 17 17 17 17 17 17 17 17 16 16 16 16 16 15 15 15 15 15 14 14
14 14 14 16 16 17 16 15 14 15 14 13 13 14 16 15 15 15 15 15 16 16 16 16 17 17 17 17 17 16 16 16 16 16 16 16 15 15 15 15 15 14 14 14
14 14 14 15 15 16 16 15 14 13 13 12 13 15 15 14 14 15 15 15 16 16 16 16 16 16 16 16 16 16 16 16 16 15 15 15 15 15 15 14 14 14 14 14
14 13 14 15 15 15 15 15 14 14 13 13 13 14 15 14 14 14 14 15 15 15 15 15 16 16 16 16 16 16 15 15 15 15 15 15 15 15 14 14 14 14 14 14
13 13 14 14 15 15 15 15 14 14 14 14 14 14 14 14 13 14 14 14 15 15 15 15 15 15 15 15 15 15 15 15 14 14 14 14 14 14 14 14 14 14 13 13
12 13 14 14 14 14 14 14 14 14 14 14 14 14 14 14 14 14 14 14 14 14 15 15 15 15 15 15 15 15 15 14 14 14 14 14 14 13 13 13 13 13 13 13
11 12 13 13 13 14 14 14 14 14 13 13 13 14 13 13 13 13 14 14 14 14 14 15 15 15 15 15 15 15 14 14 14 14 13 13 13 13 13 13 13 13 13 12
11 11 11 11 13 13 14 14 14 14 13 12 13 12 12 12 13 13 14 14 14 14 14 15 15 15 15 15 14 14 14 14 13 13 13 13 13 13 12 12 12 12 12 12
10 11 10 10 12 12 13 13 13 13 13 12 12 12 12 12 12 13 14 14 14 14 14 14 14 14 14 14 14 14 13 13 13 13 13 12 12 12 12 12 12 12 12 12
10 10 10 10 12 12 13 13 13 13 13 12 11 11 11 11 11 11 13 13 14 14 14 14 14 14 14 14 13 13 13 13 12 12 12 12 12 12 12 12 11 11 11 11
10 10 10 10 11 11 11 12 13 13 12 12 12 12 11 11 11 12 13 13 13 13 14 13 14 13 13 13 13 13 12 12 12 12 12 12 11 11 11 11 11 11 11 10
10 9 9 9 10 11 11 11 11 11 12 12 12 12 12 12 12 12 12 13 13 13 13 13 13 13 13 12 12 12 12 12 12 12 11 11 11 11 11 11 10 10 10 10
8 9 8 9 10 10 10 11 11 12 12 12 12 12 12 12 12 12 12 12 12 12 13 12 12 12 12 12 12 12 12 12 11 11 11 11 11 11 10 10 10 10 10 10
7 7 7 8 8 9 10 10 11 11 11 12 12 12 12 11 11 11 12 12 12 12 12 12 12 12 12 12 12 11 11 11 11 11 10 10 10 10 10 10 9 9 9 9
7 7 7 7 8 9 10 10 10 11 11 11 11 11 11 11 11 11 11 11 11 11 12 11 11 11 11 11 11 11 11 11 10 10 10 10 10 9 9 9 9 9 9 9
6 7 7 7 8 8 9 10 10 10 10 10 10 10 10 11 10 11 11 11 11 11 11 11 11 11 10 10 10 10 10 10 10 9 9 9 9 9 9 9 8 8 8 8

GEFSCGP_850_meantemp_324.txt.gz
Temperature
23 24 23 24 24 24 23 23 23 23 23 23 23 23 23 22 21 21 21 21 20 20 19 19 18 18 18 18 17 18 17 17 17 16 16 16 16 16 16 16 16 15 15 15
23 23 24 23 23 23 23 23 23 23 23 23 23 23 23 22 21 21 21 21 20 20 19 19 18 18 18 18 17 17 17 17 17 17 16 16 16 16 16 16 15 15 15 15
23 23 23 23 23 23 23 23 23 22 22 22 22 23 23 23 21 21 20 20 20 19 19 19 18 18 18 18 18 18 17 17 17 17 16 16 16 16 16 16 15 15 15 15
23 23 22 22 23 23 22 23 23 22 22 23 22 22 23 23 22 22 21 20 20 19 19 19 18 18 17 18 18 17 17 17 17 17 16 16 16 16 16 15 15 15 15 15
22 22 22 22 23 23 22 22 22 22 22 22 23 22 24 23 22 22 22 20 20 19 19 18 18 18 17 17 17 17 17 17 17 17 17 16 16 16 16 15 15 15 15 15
22 22 22 22 22 22 22 22 22 22 22 22 23 23 23 23 23 22 22 21 20 19 18 18 18 17 17 17 17 17 17 17 17 17 16 16 16 16 15 15 15 15 15 14
22 22 22 22 22 22 22 22 21 21 21 22 23 22 23 23 22 22 21 20 19 18 18 18 17 17 17 17 17 17 17 17 17 16 16 16 16 16 16 15 15 15 15 14
21 22 22 22 22 22 22 22 21 21 21 22 22 22 23 22 21 21 20 20 19 18 17 17 17 17 16 17 17 17 17 16 16 16 16 16 16 16 15 15 15 15 15 14
21 21 22 21 22 22 22 22 22 22 22 21 22 23 22 22 21 21 20 19 19 18 17 16 16 16 16 16 16 16 16 16 16 16 16 16 16 15 15 15 15 15 15 14
21 21 21 21 21 21 22 22 22 21 20 21 21 22 22 22 21 21 20 19 18 17 17 16 16 16 16 16 16 16 16 16 16 16 16 16 15 15 15 15 15 15 14 14
21 21 21 21 21 21 21 21 21 21 21 21 21 22 22 22 21 21 20 19 18 17 16 16 15 15 16 16 16 16 16 15 15 15 15 15 15 15 15 15 14 14 14 14
20 21 21 21 21 20 21 21 21 20 21 21 21 21 21 21 20 20 19 18 17 16 16 15 15 15 15 15 15 15 15 15 15 15 15 15 15 15 14 14 14 14 14 14
19 20 20 20 20 20 20 20 20 21 21 20 20 21 21 20 20 19 18 18 17 16 15 15 15 15 15 15 15 15 15 15 15 15 14 14 14 14 14 14 14 14 14 13
18 19 19 19 20 20 19 19 19 20 20 20 21 21 21 20 20 19 18 17 16 16 15 15 15 15 15 15 15 15 15 15 15 14 14 14 14 14 14 14 14 13 13 13
18 19 19 19 19 19 19 19 19 19 20 20 20 20 20 20 19 18 17 17 16 16 15 15 15 15 15 15 15 14 14 14 14 14 14 13 13 13 13 13 13 13 13 13
18 18 18 18 18 18 18 18 18 19 19 19 20 20 20 19 18 18 17 16 16 15 15 14 14 14 14 14 14 14 14 14 14 13 13 13 13 13 13 13 13 12 12 12
17 17 17 18 18 17 17 18 18 18 18 18 19 19 19 18 18 17 16 15 15 15 14 14 14 14 14 14 14 14 14 13 13 13 13 13 12 12 12 12 12 12 12 12
16 17 17 17 17 16 18 18 18 18 18 18 18 18 17 17 16 15 15 15 14 14 14 14 13 14 14 14 13 13 13 13 13 12 12 12 12 12 12 12 12 11 11 11
16 16 16 16 17 17 17 17 17 17 17 17 17 16 16 15 15 15 14 13 13 13 13 13 13 13 13 13 13 13 13 13 12 12 12 12 12 12 11 11 11 11 11 11
15 15 16 16 16 16 17 17 16 17 17 16 16 15 15 14 16 16 13 13 12 12 12 12 12 12 13 13 12 12 12 12 12 12 12 12 11 11 11 11 11 11 10 10
14 14 15 15 15 16 15 15 15 16 16 14 14 14 14 14 15 14 12 12 12 12 12 12 12 12 12 12 12 12 12 12 12 11 11 11 11 11 11 11 10 10 10 10
14 14 15 15 15 15 14 14 15 14 13 13 13 13 13 13 12 12 11 11 11 11 11 12 12 11 11 11 11 11 11 11 11 11 11 11 10 10 10 10 10 10 10 10
13 14 14 14 14 13 12 13 12 12 12 12 12 12 12 11 11 11 11 11 11 11 11 11 11 11 11 11 11 11 11 11 10 10 10 10 10 10 10 10 10 9 9 9
13 11 12 13 13 12 11 11 10 11 11 11 11 11 10 10 10 10 10 10 10 10 10 10 10 10 10 10 10 10 10 10 10 10 10 10 9 9 9 9 9 9 9 8
12 11 12 12 12 11 11 10 10 10 10 10 10 10 10 10 9 9 9 9 9 9 10 10 10 10 9 9 9 9 9 9 9 9 9 9 9 9 9 8 8 8 8 8
11 11 11 12 12 11 11 10 9 9 9 9 9 9 9 9 9 9 9 9 9 9 9 9 9 9 9 9 9 9 9 9 9 9 8 8 8 8 8 8 8 8 8 8

GEFSCGP_850_meantemp_330.txt.gz
Temperature
25 25 24 24 25 25 25 25 24 25 25 25 24 24 24 24 24 24 23 23 22 22 22 21 20 20 20 20 20 19 19 19 18 18 18 17 17 17 17 17 17 16 16 16
25 24 25 26 26 25 25 24 24 25 26 25 24 24 25 24 24 24 23 23 22 22 21 21 21 20 20 20 19 19 19 19 18 18 18 17 17 17 17 17 16 16 16 16
24 25 26 25 25 25 25 24 24 24 24 25 24 23 24 25 24 24 24 23 23 22 21 21 20 20 20 19 19 19 19 19 18 18 17 17 17 17 16 16 16 16 16 16
25 26 25 25 25 24 24 25 25 24 23 23 24 22 23 24 24 24 23 23 23 22 21 20 20 19 19 19 19 19 19 18 18 18 17 17 17 17 16 16 16 16 16 16
24 25 25 24 25 25 24 25 24 24 23 23 24 23 23 24 23 23 23 23 22 22 21 20 19 19 19 19 19 18 18 18 18 17 17 17 17 17 16 16 16 16 16 15
24 25 25 25 25 25 25 24 24 24 23 22 23 23 22 24 24 24 23 23 22 21 20 20 19 19 19 18 18 18 18 18 18 17 17 17 17 17 16 16 16 16 16 15
24 24 25 25 24 25 24 23 22 22 21 22 25 24 23 24 25 24 23 23 22 21 20 19 19 18 18 18 18 18 18 18 17 17 17 17 17 16 16 16 16 16 16 15
23 23 24 24 24 23 24 23 21 21 21 22 24 23 23 25 24 24 23 22 21 21 20 19 18 18 18 18 17 17 17 17 17 17 17 17 16 16 16 16 16 16 15 15
23 23 24 24 24 24 23 23 24 22 22 22 23 23 23 24 23 23 22 22 21 20 20 19 18 18 17 17 17 17 17 17 17 17 17 16 16 16 16 16 16 16 15 15
23 22 23 24 24 24 23 23 22 22 21 21 22 22 22 22 22 22 22 21 21 20 19 19 18 18 17 17 17 17 17 17 16 16 16 16 16 16 16 16 16 15 15 15
23 22 22 23 22 23 23 22 22 22 22 21 20 21 23 22 22 22 21 21 20 20 19 18 18 17 17 17 16 16 16 16 16 16 16 16 16 16 16 15 15 15 15 15
22 21 21 22 23 24 23 22 22 20 20 21 21 20 23 23 22 22 21 21 20 19 18 18 17 17 17 16 16 16 16 16 16 16 15 15 15 15 15 15 15 15 15 15
21 21 20 20 21 22 22 22 22 21 20 20 20 20 22 22 21 21 21 20 19 19 18 17 17 17 16 16 16 16 15 15 15 15 15 15 15 15 15 15 15 14 14 14
20 20 20 19 20 21 20 21 21 21 19 19 20 20 21 21 20 20 20 19 18 18 17 17 17 16 16 16 16 16 15 15 15 15 15 15 15 15 14 14 14 14 14 14
20 19 20 20 21 21 20 20 20 20 20 19 20 19 20 20 20 20 19 19 18 17 17 17 16 16 16 16 15 15 15 15 15 15 14 14 14 14 14 14 14 14 14 13
20 19 19 19 20 20 20 20 19 20 20 20 20 19 20 20 19 19 19 18 18 17 17 16 16 16 15 15 15 15 15 15 15 14 14 14 14 14 13 13 13 13 13 13
19 19 18 18 19 19 18 19 19 19 20 19 19 19 19 19 18 18 18 17 17 17 16 16 15 15 14 14 14 14 14 14 14 14 14 13 13 13 13 13 13 13 13 12
18 18 18 18 18 17 18 20 19 19 19 19 18 18 18 18 17 17 17 16 16 16 15 15 15 15 14 14 14 14 14 14 14 14 13 13 13 13 12 12 12 12 12 12
18 18 17 17 17 17 18 18 18 18 17 18 17 17 17 16 17 16 16 15 15 15 15 14 14 14 14 14 14 13 13 13 13 13 13 13 13 12 12 12 12 11 11 11
18 18 17 16 16 16 16 17 17 18 16 16 16 16 16 16 15 15 15 14 14 14 14 14 14 14 13 13 13 13 13 13 13 12 12 12 12 12 12 11 11 11 11 11
16 16 15 15 15 16 16 16 17 15 14 15 15 15 15 15 14 14 14 14 13 13 13 13 13 13 13 13 12 12 12 12 12 12 12 12 12 11 11 11 11 10 10 10
15 15 15 15 15 14 15 16 15 14 15 15 14 14 13 13 13 13 13 13 13 12 12 12 12 12 12 12 12 12 12 12 12 12 11 11 11 11 11 10 10 10 10 10
15 15 14 14 14 14 14 14 14 14 14 14 13 13 13 12 12 12 12 12 12 11 11 11 11 11 11 11 11 11 11 11 11 11 11 11 10 10 10 10 10 9 9 9
15 15 14 14 14 14 14 14 13 13 13 12 12 12 12 11 11 11 11 11 11 10 10 10 11 10 10 10 10 10 10 10 10 10 10 10 10 10 9 9 9 9 9 9
14 14 14 13 13 13 13 12 12 12 12 11 11 11 11 11 10 10 10 10 9 9 10 10 9 10 10 10 10 10 9 9 9 9 9 9 9 9 9 9 9 9 9 8
13 13 12 12 12 12 12 11 11 11 11 11 10 10 10 10 10 10 9 9 9 9 9 9 9 9 9 9 9 9 9 9 9 9 9 9 9 8 8 8 8 8 8 8

GEFSCGP_850_meantemp_336.txt.gz
Temperature
22 19 19 19 20 20 20 20 20 20 21 21 20 19 19 20 20 19 19 19 19 20 20 20 20 20 19 19 19 19 19 18 18 18 18 18 17 17 17 17 17 16 16 16
19 19 20 21 21 21 21 20 20 20 21 21 19 19 19 19 19 20 19 19 19 19 20 19 19 19 19 19 19 19 19 18 18 18 18 18 17 17 17 17 16 16 16 16
19 20 21 22 21 21 20 20 20 20 21 20 20 18 18 19 19 19 19 19 19 19 19 19 19 19 19 19 19 19 18 18 18 18 18 17 17 17 17 16 16 16 16 16
20 21 21 21 21 21 20 21 21 21 19 18 19 17 17 18 18 18 18 19 19 19 19 19 19 19 19 19 19 19 18 18 18 18 18 17 17 17 16 16 16 16 16 16
19 21 21 21 21 21 20 21 21 21 19 18 18 17 16 17 17 17 17 18 19 19 19 19 19 19 19 19 18 18 18 18 18 18 17 17 17 17 16 16 16 16 16 15
20 21 21 21 21 21 21 20 19 17 17 17 18 17 16 16 17 17 17 18 18 18 18 18 18 18 18 18 18 18 18 18 18 17 17 17 17 17 16 16 16 16 15 15
19 20 21 21 20 20 20 17 16 16 15 16 17 17 16 17 18 18 17 18 18 18 18 18 18 18 18 18 18 17 17 17 17 17 17 17 17 16 16 16 16 16 15 15
18 18 20 20 20 19 19 17 16 16 16 16 17 16 17 18 18 19 18 18 17 17 17 17 18 18 18 18 17 17 17 17 17 17 17 16 16 16 16 16 16 15 15 15
17 17 20 20 20 20 19 17 17 16 16 15 15 16 17 18 17 17 17 17 17 17 17 17 17 17 17 17 17 17 17 17 17 16 16 16 16 16 16 16 15 15 15 15
17 17 19 20 20 20 19 17 15 15 15 15 16 16 16 17 16 16 16 16 17 16 16 17 17 17 17 17 17 17 17 16 16 16 16 16 16 15 15 15 15 15 15 15
17 16 17 18 18 18 18 17 16 14 14 15 15 15 17 16 16 16 16 16 16 16 16 16 16 16 16 16 16 16 16 16 16 16 16 15 15 15 15 15 15 15 15 15
16 14 15 16 18 18 18 17 15 15 15 14 14 15 17 16 16 16 16 16 16 16 16 16 16 16 16 16 16 16 16 16 16 15 15 15 15 15 15 15 14 14 14 14
16 14 14 15 16 17 17 17 16 14 13 13 14 15 16 15 16 16 16 16 16 16 16 16 16 15 15 15 15 15 15 15 15 15 15 15 15 15 14 14 14 14 14 14
15 13 14 15 15 16 16 17 16 14 13 13 14 14 15 15 15 15 15 16 16 16 15 15 15 15 15 15 15 15 15 15 15 14 14 14 14 14 14 14 14 14 14 13
14 13 14 15 16 16 16 16 16 15 14 14 14 14 14 14 14 15 15 15 15 15 15 15 15 15 14 14 14 14 14 14 14 14 14 14 14 14 14 13 13 13 13 13
13 13 14 14 15 15 15 15 15 15 15 14 14 14 14 14 14 14 14 15 14 15 15 15 14 14 14 14 14 14 14 14 14 14 14 13 13 13 13 13 13 13 13 13
12 12 13 13 14 14 13 14 14 14 14 14 13 13 13 13 13 13 14 14 14 14 14 14 14 14 14 14 14 14 14 14 13 13 13 13 13 13 13 13 12 12 12 12
12 11 11 11 13 13 13 14 14 14 13 13 13 12 13 13 13 13 13 13 13 13 14 14 14 14 14 14 13 13 13 13 13 13 13 13 13 12 12 12 12 12 12 12
11 11 10 10 11 12 13 13 14 13 12 12 12 12 12 12 12 12 13 13 13 13 13 13 14 14 13 13 13 13 13 13 13 12 12 12 12 12 12 12 12 11 11 11
11 10 10 10 11 11 12 13 14 13 11 12 12 11 11 11 10 10 11 12 12 12 13 13 13 13 13 13 12 12 12 12 12 12 12 12 12 12 11 11 11 11 11 11
11 10 10 10 10 10 11 12 13 12 11 12 12 12 11 11 10 11 11 11 11 11 12 12 12 12 12 12 12 12 12 11 11 11 11 11 11 11 11 11 11 11 10 10
10 9 9 9 10 10 11 12 11 10 11 11 11 11 11 11 11 10 10 10 10 11 11 11 11 11 11 11 11 11 11 11 11 11 11 11 11 11 10 10 10 10 10 10
9 9 9 9 9 10 11 11 12 12 11 11 11 11 11 10 10 10 10 10 10 10 10 10 10 10 10 10 10 10 10 10 10 10 10 10 10 10 10 10 10 9 9 9
9 9 9 8 9 10 11 11 11 11 11 11 11 11 10 10 9 9 9 9 9 9 9 9 9 9 9 9 9 9 9 9 9 9 9 9 9 9 9 9 9 9 9 8
8 8 8 8 8 9 10 10 10 10 11 10 10 10 10 9 9 9 8 8 8 8 8 8 8 8 8 8 8 8 8 8 8 9 8 8 9 8 8 8 8 8 8 8
7 8 7 8 9 8 9 10 10 10 10 10 9 9 9 9 8 8 8 8 7 7 7 7 7 7 7 7 7 7 7 7 8 8 8 8 8 8 8 8 8 7 7 7